Location: Bannatyne
(13.0833°N, 59.5333°W)
Time: 06:58:41
(UTC+00:00)

SWIFT - Pass Details

Date: 18 October 2019
Orbit: 545 x 561 km, 20.6° (Epoch: 16 November)

Event Time Altitude Azimuth Distance (km) Brightness Sun altitude
Rises 22:41:36 0° 243° (WSW) 2,719 7.2 -16.3°
Reaches altitude 10° 22:43:54 10° 239° (WSW) 1,827 6.0 -16.8°
Maximum altitude 22:48:05 56° 160° (SSE) 659 2.6 -17.8°
Enters shadow 22:49:20 39° 105° (ESE) 835 2.7 -18.1°
